User: anonymous   Login
Location: Invercargill
(46.4000°S, 168.3500°E)
Time: 01:08:09
(UTC+13:00)
Language:

Cosmos 1340 Rocket - Orbit

View from above orbital plane
View from above orbital plane
View from above satellite
View from above satellite

Ground track
Ground track

The orbit data is extracted from the following two-line orbital elements,

1 13068U 82013B   19078.58176215 +.00000949 +00000-0 +61054-4 0  9994
2 13068 081.2049 211.1680 0021966 003.5576 356.5799 15.07271312019691
Epoch (UTC): 19 March 2019 13:57:44
Eccentricity: 0.0021966
inclination: 81.2049°
perigee height: 529 km
apogee height: 560 km
right ascension of ascending node: 211.1680°
argument of perigee: 3.5576°
revolutions per day: 15.07271312
mean anomaly at epoch: 356.5799°
orbit number at epoch: 1969

The dashed part of the orbit path shows where the satellite is in the earth's shadow,  

DLR